Presure
141 143 137 126 89 106 123 143 146 140 141 148 150 103 155 155 150 147 149 159 169 166 174 179 180 156 157 174 189 190 213 250 251 238 237 221 223 217 219 212 207 218 215
134 142 142 129 107 113 138 147 141 149 152 147 159 153 148 149 145 154 159 167 165 175 176 179 166 177 167 190 195 210 227 264 239 238 233 226 221 220 220 207 212 223 213
132 124 133 147 140 146 142 141 150 153 147 142 152 146 151 147 150 155 165 165 171 171 182 183 174 172 188 196 211 206 261 240 237 228 225 218 216 227 210 205 208 214 212
153 150 148 149 144 141 148 149 146 145 149 137 153 153 149 151 152 156 170 173 170 182 181 181 169 170 191 211 209 267 250 242 227 234 237 227 223 217 221 215 231 216 212
142 142 141 147 154 153 146 145 154 150 144 157 144 153 152 151 146 168 173 169 178 175 181 186 189 192 208 194 243 251 251 243 248 249 242 238 238 231 227 230 219 214 215
148 156 158 149 140 140 150 161 148 150 152 148 159 159 156 164 170 172 168 180 174 176 184 199 186 197 224 232 256 254 273 285 276 268 262 253 241 232 227 221 229 215 211
168 143 139 136 150 161 156 143 151 143 158 160 149 159 166 169 173 163 180 172 178 184 191 181 195 208 228 262 257 299 265 270 268 258 254 272 236 240 231 222 234 219 205
143 139 149 157 143 143 140 149 156 155 159 158 162 170 156 171 159 179 171 172 183 188 184 194 207 235 266 276 282 285 275 272 267 254 248 267 248 247 246 233 230 226 217
152 154 152 156 149 134 152 156 152 158 162 169 169 173 176 157 176 153 176 171 185 187 193 209 243 256 275 273 287 274 263 252 240 225 221 231 243 263 249 248 235 222 217
141 146 149 153 158 159 131 158 161 168 168 163 174 179 168 176 172 181 165 178 193 190 202 241 256 274 284 273 275 259 210 238 190 231 285 203 214 233 228 253 238 237 228
159 160 159 156 127 160 160 161 158 167 172 177 163 168 176 179 181 187 189 199 195 199 242 252 262 292 221 273 262 248 242 230 220 225 233 240 258 242 207 218 217 245 228
157 147 158 160 161 162 162 172 175 174 164 161 161 178 182 183 188 195 198 196 198 243 186 254 291 282 277 266 251 243 233 254 228 299 293 248 253 240 233 221 236 233 243
160 162 165 158 163 168 170 167 170 155 164 178 182 179 146 191 194 194 202 208 251 261 251 280 281 268 268 255 251 239 250 256 398 338 351 277 251 257 233 229 239 228 227
167 164 165 169 175 171 155 154 162 174 180 182 181 146 191 189 190 202 253 257 261 258 247 276 265 262 262 254 244 259 253 377 400 354 311 292 255 237 240 210 217 219 227
174 170 173 178 172 173 176 177 179 180 184 183 192 193 181 194 199 240 248 261 251 252 281 267 256 256 256 254 249 249 249 408 373 341 299 270 262 248 237 256 232 219 215
168 175 174 172 168 170 156 180 183 182 165 186 189 167 193 200 261 237 256 253 253 281 269 263 252 252 244 252 262 242 238 363 332 315 297 255 259 231 241 233 229 238 217
177 177 177 176 179 179 183 186 183 183 189 188 165 218 226 236 237 255 247 253 271 267 261 253 255 244 237 245 256 257 240 252 305 299 275 267 253 250 244 254 240 241 232
184 179 184 186 189 189 183 189 187 192 198 154 234 239 238 236 253 254 248 262 262 255 255 245 254 246 237 220 267 265 251 227 245 284 271 260 239 233 242 243 264 240 249
192 194 184 189 194 200 191 194 206 244 193 237 234 270 224 253 250 245 272 258 259 258 239 257 250 237 237 251 242 258 243 249 218 216 262 241 250 229 230 239 240 222 238
191 199 193 215 193 205 235 231 246 233 240 255 254 252 250 249 241 275 264 268 242 243 244 263 235 236 237 250 234 244 266 234 232 220 261 229 254 260 250 241 247 242 240
240 227 226 261 253 260 248 248 252 260 272 257 250 245 243 249 272 265 256 248 254 244 266 225 235 232 239 243 204 233 209 262 241 254 227 284 214 236 264 228 272 229 243
258 225 223 256 250 256 266 260 262 257 252 243 246 247 278 266 266 253 254 244 262 247 219 233 235 239 245 240 245 261 259 256 246 248 208 235 236 241 236 227 226 226 222
265 213 261 248 260 253 267 258 246 245 239 258 260 270 262 269 253 307 263 273 244 208 225 230 227 238 240 250 263 262 252 244 241 240 243 249 247 246 241 238 235 233 233
263 261 251 258 265 256 244 243 242 237 254 279 259 266 255 254 282 286 279 239 216 228 228 215 233 247 260 265 262 244 237 232 237 237 243 249 253 259 255 253 253 252 250
266 266 250 258 237 240 238 241 257 263 257 256 251 250 276 270 265 252 244 226 235 230 219 240 253 265 267 244 238 236 229 226 233 234 243 254 269 271 270 267 266 266 271
256 236 235 237 239 226 253 244 263 259 261 253 244 247 263 264 277 248 244 240 238 251 258 263 269 243 234 227 223 227 235 235 236 244 252 271 274 276 275 277 281 285 289
Wind_Speed
51 50 47 55 42 49 60 60 59 57 58 65 67 41 82 79 76 74 77 90 96 95 97 97 96 76 79 90 99 98 101 80 63 64 61 68 59 56 50 49 47 42 46
52 56 55 55 47 53 58 59 59 66 70 63 76 80 72 75 72 87 90 97 95 99 97 98 86 93 85 103 104 105 94 59 73 61 62 59 62 58 53 56 51 42 45
58 60 57 57 58 60 59 59 69 73 61 63 79 70 78 77 83 89 99 96 99 99 104 103 95 91 104 108 106 99 73 81 73 75 70 69 65 55 62 60 58 49 47
66 62 61 63 60 61 68 69 63 62 69 65 87 83 76 86 86 90 101 102 100 107 104 103 93 93 108 110 103 78 83 81 83 76 69 69 67 66 62 60 49 52 50
57 59 60 64 75 74 67 65 79 75 69 89 73 85 89 87 78 102 102 100 107 104 106 108 108 109 114 103 99 91 84 84 82 75 72 68 62 58 57 54 49 46 49
70 79 79 64 58 62 74 87 72 77 82 78 91 93 90 96 102 104 100 109 105 105 110 116 106 111 115 111 94 91 85 72 68 67 67 65 63 60 59 58 55 51 49
81 60 59 60 75 88 80 67 79 69 93 92 78 92 101 103 105 95 110 106 110 112 115 106 113 115 118 99 95 72 74 68 63 60 59 57 60 59 61 60 56 55 56
64 62 74 83 65 67 67 79 91 90 93 89 95 102 90 108 92 111 104 106 112 115 110 116 120 118 99 92 77 73 67 64 57 56 53 51 54 58 62 61 59 59 58
79 83 79 86 77 64 87 90 85 92 99 105 104 106 107 93 109 91 111 104 114 115 119 125 115 107 95 79 73 70 65 63 58 54 56 56 51 52 58 62 62 60 62
65 72 79 85 91 93 71 93 98 105 105 99 109 110 100 106 101 110 99 109 122 119 125 116 106 96 82 73 70 68 59 65 56 64 56 63 61 53 52 50 57 63 63
92 92 93 90 69 96 97 100 96 107 109 109 97 103 110 110 111 113 114 122 120 123 115 107 101 79 63 73 70 70 67 65 61 67 77 71 58 54 64 58 58 61 64
90 84 94 96 98 100 100 108 109 108 98 97 98 114 116 114 118 119 119 117 118 113 71 100 80 76 72 70 70 70 68 75 67 69 67 76 68 51 57 65 51 55 59
94 97 100 90 98 104 104 100 102 89 99 113 114 112 82 119 119 117 122 120 107 93 96 84 75 76 71 70 70 69 74 76 57 58 59 68 66 50 58 61 54 60 64
101 98 100 105 111 105 88 88 94 109 114 113 112 81 118 116 116 124 106 101 91 91 95 76 75 73 70 69 68 72 71 57 46 52 59 60 61 62 58 62 65 69 67
108 105 108 112 106 107 110 111 113 113 118 114 121 120 109 122 122 114 107 90 96 90 74 73 72 72 69 68 66 67 68 38 33 42 52 50 69 60 60 64 72 73 66
102 110 109 105 101 104 95 115 119 115 97 114 117 97 122 124 98 108 93 95 91 77 73 71 70 69 66 67 69 62 62 21 12 32 52 51 60 58 66 69 70 78 68
110 110 111 109 114 114 118 120 117 114 119 116 96 123 115 109 107 88 95 91 80 73 71 70 67 66 65 66 68 64 58 55 14 34 45 54 60 61 62 66 66 75 76
117 107 117 119 121 121 113 120 116 123 127 85 112 107 107 106 87 88 90 88 73 73 69 68 64 63 62 59 62 61 55 52 43 26 30 44 42 40 57 69 68 64 82
120 122 111 117 120 124 118 121 119 107 100 108 107 83 97 85 87 91 77 77 70 69 69 65 61 60 61 61 58 55 53 47 48 44 33 32 48 37 43 58 61 51 70
113 120 114 116 117 117 108 112 102 108 104 96 90 85 84 85 88 73 71 67 70 68 67 60 57 59 61 60 58 54 47 46 43 48 35 35 39 61 64 61 68 68 70
97 109 107 99 100 97 99 100 100 89 73 79 81 85 85 85 73 69 70 67 65 64 59 58 58 60 61 60 56 56 57 41 46 40 47 45 45 48 62 53 65 54 58
108 100 100 97 96 93 78 81 77 73 75 83 81 83 72 72 69 69 67 67 58 60 57 58 60 61 61 60 58 53 49 47 46 44 57 49 51 50 53 56 56 57 58
78 97 76 83 75 80 65 66 75 74 80 77 78 70 70 67 67 48 59 52 57 59 58 60 63 63 61 60 56 51 49 52 52 52 52 53 54 58 60 62 65 67 68
70 70 74 70 61 60 67 69 73 78 80 67 66 64 65 64 55 50 49 56 58 58 59 62 64 64 61 57 54 55 57 60 58 59 59 61 60 60 63 67 69 72 75
57 54 60 58 68 68 70 74 72 72 66 64 62 63 56 55 53 54 55 59 58 60 63 64 63 61 57 57 60 60 64 66 65 65 67 68 66 64 65 66 70 74 77
50 63 66 66 67 72 65 68 63 62 59 58 59 58 54 52 50 54 55 57 59 59 59 58 58 58 61 64 68 69 69 69 71 73 75 74 70 69 69 71 73 74 75
Wind_Direction
271 275 273 274 283 281 283 292 297 295 298 302 305 298 311 313 312 306 305 311 313 313 313 314 315 309 309 312 317 317 319 312 303 306 304 311 306 303 298 298 297 288 284
269 277 279 274 283 281 286 295 293 299 300 304 306 311 307 310 303 311 310 311 312 312 311 314 311 312 310 317 318 318 315 299 308 301 298 297 301 297 294 297 294 284 282
272 275 276 286 283 290 290 292 297 299 304 302 312 304 309 305 306 309 309 311 311 310 314 314 311 311 315 317 317 316 305 309 306 306 301 300 297 287 294 293 291 285 279
279 281 282 285 286 287 293 294 297 301 301 293 306 307 304 306 305 307 310 310 309 313 313 312 310 311 314 316 316 306 307 305 306 300 294 291 288 287 284 284 279 276 275
277 278 279 284 288 290 290 296 297 303 295 304 301 306 305 304 300 307 308 308 310 309 311 311 313 314 316 313 313 309 305 303 298 292 289 287 283 280 277 275 271 272 268
278 281 283 288 285 287 295 292 296 299 300 298 303 304 303 305 306 307 307 309 308 309 311 313 311 313 316 314 308 307 301 293 291 285 280 276 275 272 273 273 265 263 266
272 285 282 279 290 287 290 292 298 293 298 300 298 302 306 306 306 305 308 307 307 310 312 310 312 315 316 307 307 299 301 297 292 289 284 272 277 266 266 266 261 257 263
279 281 287 286 289 292 289 295 295 297 298 300 301 303 301 304 305 306 305 305 308 310 310 311 314 314 307 306 303 302 300 297 291 290 288 276 273 269 262 260 257 255 256
282 285 288 288 290 281 291 292 295 298 300 300 300 301 302 301 303 306 306 308 310 309 311 312 312 310 309 306 303 304 302 301 297 292 288 282 274 268 262 257 255 253 254
278 285 286 287 288 290 285 295 297 298 298 298 299 299 299 300 301 304 305 307 309 309 311 311 310 309 307 306 305 303 301 302 297 296 282 286 283 266 267 260 259 253 251
281 283 285 288 281 290 292 292 294 294 295 296 295 297 299 300 303 305 307 308 309 310 310 309 309 307 304 306 304 303 301 299 297 294 289 283 273 260 275 263 263 253 251
279 280 282 284 286 287 288 289 292 293 293 294 297 297 299 302 304 306 307 307 308 309 306 308 307 307 307 306 305 304 303 301 297 277 258 268 266 253 251 258 250 254 245
277 279 281 283 284 286 288 289 290 292 292 293 296 298 299 303 304 305 306 307 307 306 306 308 307 308 308 307 307 307 306 304 263 251 235 238 252 239 246 248 244 249 249
277 279 280 282 284 285 286 289 290 291 292 295 297 299 301 303 303 304 306 306 306 307 308 306 307 308 308 308 308 312 311 303 259 236 218 228 238 252 242 265 256 255 249
276 279 280 281 284 286 287 288 289 292 293 296 297 300 301 302 303 305 306 306 306 307 307 305 308 309 309 311 313 316 319 304 245 231 213 213 226 243 247 240 239 254 259
275 277 279 281 283 284 287 288 290 291 294 296 297 298 300 301 304 305 303 305 306 307 306 306 309 308 309 314 316 318 320 299 276 227 205 222 230 255 248 248 249 242 257
274 277 278 280 281 283 286 287 288 291 293 295 295 296 299 300 303 300 303 304 305 305 305 306 308 308 309 316 315 318 321 330 263 216 217 221 232 240 242 238 250 244 247
273 275 277 279 281 282 285 286 290 290 292 293 296 298 299 302 299 300 303 304 303 304 303 306 307 308 309 310 317 319 322 321 331 239 244 231 262 280 256 258 245 257 247
273 274 278 280 282 282 285 288 289 292 291 295 296 295 299 297 298 302 301 300 300 302 303 305 306 305 308 312 314 319 320 324 318 321 267 300 254 286 283 270 266 272 266
274 276 278 279 282 283 286 285 291 290 294 295 295 295 296 296 299 299 299 299 300 300 302 304 304 305 307 310 312 316 320 314 313 314 288 306 270 259 266 271 269 270 271
276 278 277 287 287 289 287 291 291 291 288 291 293 292 295 296 297 297 296 298 298 298 301 302 305 303 305 307 306 312 309 312 310 308 305 277 300 284 269 282 268 272 266
283 274 278 286 285 288 284 286 287 286 289 290 293 295 296 296 294 294 294 295 296 298 299 304 302 303 304 306 309 311 311 310 307 302 304 301 294 287 285 282 279 276 276
273 275 278 280 279 284 281 282 285 287 291 296 296 295 295 292 293 291 292 292 295 295 299 299 300 301 305 307 307 307 306 306 305 303 300 296 290 287 284 283 281 281 280
274 274 277 277 277 281 283 286 288 290 296 294 295 293 292 292 293 292 290 293 293 296 295 299 301 304 305 304 303 305 304 303 302 301 300 298 293 287 282 280 277 275 274
266 267 276 281 281 287 287 291 292 294 294 294 293 293 294 292 291 291 292 293 295 296 299 300 301 302 303 304 304 304 303 302 302 301 302 302 299 293 286 280 276 273 272
267 275 278 280 282 283 287 290 294 292 291 290 292 297 293 292 291 292 293 295 296 295 296 299 301 303 303 304 304 304 304 305 304 304 305 303 299 295 291 287 285 282 280